Де-Мойн

США     41°34′46″N   93°38′41″W
темп.,
°C
ветер,
м/с
пор.,
м/с
влажн.,
%
обл.,
%
осадки,
мм/ч
давл.,
гПа
погр.,
м
15 мая, сб
сб1501:00+12ю31097100 1.8 1018279
04:00+13ю41197100 3.9 1018401
07:00+13ю4897100 4.7 1018356
10:00+15ю3388100 0.0 1018520
13:00+17ююв227894 0.1 1017670
16:00+21юв225974 0.1 10161420
19:00+18юв44817 0.2 1016334
22:00+13юв36955 0.0 1017106
16 мая, вс
вс1601:00+11ююв34964 0.0 101873
04:00+10юв229619 0.0 101934
07:00+11вюв2496100 0.0 1019108
10:00+16вюв4679100 0.0 1019568
13:00+19юв6768100 0.0 1018997
16:00+17вюв4785100 0.2 1017490
19:00+15в51095100 0.9 1016360
22:00+15вюв41096100 0.0 1017388
17 мая, пн
пн1701:00+15в4899100 0.0 1015255
04:00+15в4799100 0.0 1015335
07:00+15в4898100 0.0 1016422
10:00+17вюв61189100 0.1 1016723
13:00+17вюв61290100 0.8 1015860
16:00+16в61391100 0.1 1015751
19:00+15в71493100 0.3 1014827
22:00+15в61294100 0.0 1015740
18 мая, вт
вт1801:00+15в51098100 0.4 1014551
04:00+15в4998100 0.2 1013466
07:00+15в4899100 0.4 1013324
10:00+16вюв4798100 0.1 1013408
13:00+20вюв3483100 0.3 1013655
16:00+23ю3476100 2.1 1011749
19:00+22ююв2283100 4.1 1011227
22:00+18вюв3393100 0.1 101243
19 мая, ср
ср1901:00+18ююв3496100 0.6 101187
04:00+17ююв41298100 2.4 1012464
07:00+17ююв4994100 2.4 1012451
10:00+17вюв41098100 3.9 1012560
13:00+18ююз4896100 5.4 1012563
16:00+22ююз697996 0.6 10131132
19:00+22ю5982100 1.3 1013771
22:00+18ююв4109594 0.0 1015235